GW5292 Weather Reports


Display with metric or nautical units.
time (UTC)temp
F
wind
direction
speed
MPH
gust
MPH
rain 1hr
in
rain 24hr
in
rain mn
in
humidity
%
barometer
mb
20260831074526 69 9 0.0 0.0 0.00 0.00 0.00 90 1019.4
20260831073030 70 9 0.0 0.0 0.00 0.00 0.00 90 1019.2
20260831071534 70 9 0.0 0.0 0.00 0.00 0.00 90 1019.1
20260831070055 70 9 0.0 0.0 0.00 0.00 0.00 90 1019.2
20260831064528 70 9 0.0 0.0 0.00 0.00 0.00 90 1019.3
20260831063027 70 9 0.0 0.0 0.00 0.00 0.00 90 1019.2
20260831061512 70 9 0.0 0.0 0.00 0.00 0.00 90 1019.3
20260831060016 71 9 0.0 0.0 0.00 0.00 0.00 89 1019.4
20260831054521 71 9 0.0 0.0 0.00 0.00 0.00 89 1019.0
20260831053028 71 9 0.0 0.0 0.00 0.00 0.00 89 1018.9
20260831051507 72 9 0.0 0.0 0.00 0.00 0.00 88 1018.8
20260831050012 72 9 0.0 0.0 0.00 0.00 0.00 89 1018.9
20260831044519 72 9 0.0 0.0 0.00 0.00 0.00 88 1019.1
20260831043026 72 9 0.0 0.0 0.00 0.00 0.00 89 1019.1
20260831041533 72 9 0.0 0.0 0.00 0.00 0.00 90 1019.2
20260831040029 72 9 0.0 0.0 0.00 0.00 0.00 90 1019.3
20260831034516 72 9 0.0 0.0 0.00 0.00 0.00 90 1019.6
20260831033024 73 9 0.0 0.0 0.00 0.00 0.00 90 1019.4
20260831031527 73 9 0.0 0.0 0.00 0.00 0.00 90 1019.4
20260831030030 73 9 0.0 0.0 0.00 0.00 0.00 89 1019.5
20260831024511 74 9 0.0 0.0 0.00 0.00 0.00 1019.7
20260831023028 74 9 0.0 0.0 0.00 0.00 0.00 89 1019.5
20260831021545 74 9 0.0 0.0 0.00 0.00 0.00 87 1019.5
20260831020026 75 9 0.0 0.0 0.00 0.00 0.00 86 1019.5
20260831014532 75 9 0.0 0.0 0.00 0.00 0.00 86 1019.4
20260831013015 75 9 0.0 0.0 0.00 0.00 0.00 86 1019.4
20260831011525 75 194 0.0 0.0 0.00 0.00 0.00 87 1019.3
20260831010052 75 194 0.0 0.0 0.00 0.00 0.00 86 1019.1
20260831004536 75 194 0.0 0.0 0.00 0.00 0.00 86 1018.8
20260831003035 75 194 0.0 0.0 0.00 0.00 0.00 86 1018.5
20260831001530 76 194 0.0 0.0 0.00 0.00 0.00 85 1018.3
20260831000027 77 194 0.0 0.0 0.00 0.00 0.00 83 1018.3
20260830234531 77 194 0.0 0.0 0.00 0.00 0.00 82 1018.2
20260830233029 77 194 0.0 0.0 0.00 0.00 0.00 81 1018.5
20260830231534 78 194 0.0 0.0 0.00 0.00 0.00 80 1018.3
20260830230019 78 194 0.0 0.0 0.00 0.00 0.00 79 1018.3
20260830224529 79 194 0.0 0.0 0.00 0.00 0.00 77 1018.4
20260830223015 80 194 0.0 0.0 0.00 0.00 0.00 75 1018.3
20260830221511 81 194 0.0 2.0 0.00 0.00 0.00 76 1018.3
20260830220003 81 194 0.0 2.0 0.00 0.00 0.00 73 1018.2
20260830214501 81 194 0.0 2.0 0.00 0.00 0.00 73 1018.1
20260830213005 81 194 0.0 2.0 0.00 0.00 0.00 72 1018.2
20260830211518 82 190 1.0 5.0 0.00 0.00 0.00 71 1018.1
20260830210015 82 209 2.0 3.0 0.00 0.00 0.00 71 1018.1
20260830204503 82 194 0.0 3.0 0.00 0.00 0.00 72 1018.1
20260830203009 82 183 1.0 4.0 0.00 0.00 0.00 72 1018.2
20260830201508 82 167 1.0 2.0 0.00 0.00 0.00 74 1018.4
20260830200014 82 198 0.0 4.0 0.00 0.00 0.00 74 1018.5
20260830194519 82 177 1.0 6.0 0.00 0.00 0.00 74 1018.5
20260830193004 81 164 2.0 3.0 0.00 0.00 0.00 76 1018.9
20260830191507 81 202 2.0 2.0 0.00 0.00 0.00 76 1019.2
20260830190016 80 198 1.0 3.0 0.00 0.00 0.00 78 1019.4
20260830184517 81 196 2.0 4.0 0.00 0.00 0.00 74 1019.7
20260830183024 81 197 1.0 3.0 0.00 0.00 0.00 76 1019.6
20260830181505 80 352 1.0 3.0 0.00 0.00 0.00 80 1019.9
20260830180010 79 194 0.0 4.0 0.00 0.00 0.00 81 1020.2
20260830174523 78 170 1.0 2.0 0.00 0.00 0.00 81 1020.4
20260830173036 77 188 0.0 2.0 0.00 0.00 0.00 81 1020.6
20260830171530 77 171 1.0 3.0 0.00 0.00 0.00 79 1020.8
20260830170006 77 178 1.0 4.0 0.00 0.00 0.00 82 1020.9
20260830164510 75 206 1.0 2.0 0.00 0.00 0.00 83 1020.8
20260830163015 72 134 0.0 2.0 0.00 0.00 0.00 85 1020.8
20260830161524 69 208 0.0 2.0 0.00 0.00 0.00 86 1021.0
20260830160034 68 252 1.0 2.0 0.00 0.00 0.00 85 1021.4
20260830154509 68 9 1.0 2.0 0.00 0.00 0.00 86 1021.7
20260830153018 67 229 0.0 1.0 0.00 0.00 0.00 86 1021.7
20260830151521 66 348 0.0 2.0 0.00 0.00 0.00 86 1021.8
20260830150030 65 284 0.0 2.0 0.00 0.00 0.00 86 1021.9
20260830144535 65 279 0.0 1.0 0.00 0.00 0.00 87 1021.9
20260830143012 64 279 0.0 0.0 0.00 0.00 0.00 89 1021.9
20260830141518 64 279 0.0 0.0 0.00 0.00 0.00 89 1022.0
20260830140028 64 279 0.0 0.0 0.00 0.00 0.00 88 1022.0
20260830134539 63 279 0.0 0.0 0.00 0.00 0.00 89 1022.0
20260830133003 63 279 0.0 0.0 0.00 0.00 0.00 91 1021.9
20260830131503 62 279 0.0 1.0 0.00 0.00 0.00 91 1022.3
20260830130006 62 279 0.0 2.0 0.00 0.00 0.00 92 1022.3
20260830124505 62 279 0.0 1.0 0.00 0.00 0.00 93 1022.3
20260830123004 61 279 0.0 2.0 0.00 0.00 0.00 93 1022.3
20260830121503 61 282 0.0 1.0 0.00 0.00 0.00 94 1022.4
20260830120003 60 282 0.0 1.0 0.00 0.00 0.00 94 1022.4
20260830114504 60 337 0.0 0.0 0.00 0.00 0.00 94 1022.5
20260830113006 59 337 0.0 2.0 0.00 0.00 0.00 94 1022.5
20260830111504 59 270 0.0 2.0 0.00 0.00 0.00 94 1022.6
20260830110005 58 330 0.0 2.0 0.00 0.00 0.00 94 1022.5
20260830104503 58 330 0.0 0.0 0.00 0.00 0.00 95 1022.4
20260830103005 57 330 0.0 0.0 0.00 0.00 0.00 95 1022.5
20260830101507 57 330 0.0 1.0 0.00 0.00 0.00 95 1022.7
20260830100009 57 330 0.0 0.0 0.00 0.00 0.00 95 1022.7
20260830094507 57 330 0.0 0.0 0.00 0.00 0.00 95 1022.7
20260830093007 57 330 0.0 0.0 0.00 0.00 0.00 95 1022.7
20260830091504 56 330 0.0 0.0 0.00 0.00 0.00 95 1022.7
20260830090012 56 330 0.0 0.0 0.00 0.00 0.00 95 1022.6
20260830084511 56 330 0.0 0.0 0.00 0.00 0.00 96 1022.8
20260830083010 56 330 0.0 2.0 0.00 0.00 0.00 96 1023.0
20260830081512 55 209 0.0 0.0 0.00 0.00 0.00 96 1023.0
20260830080009 55 209 0.0 0.0 0.00 0.00 0.00 96 1023.1